Simultaneous Nadir Overpasses (SNOs) Predictions

Prediction of SNOs over PacNW region [( 10.00, 139.50) to ( 22.70, 165.60)] between NOAA-19 and NPP Satellites:

Table of predicted SNOs over PacNW region for the next 30.0 days since TLE Epoch: 7/25/2014
Index Date (NOAA-19) Time (NOAA-19) NOAA-19 Lat,Lon Date (NPP) Time (NPP) NPP Lat,Lon Distance(km) Time Diff (sec)
1 08/06/2014 16:23:19 20.85, 146.03 08/06/2014 16:22:48 21.86, 141.00 533.45 31
2 08/07/2014 03:39:10 22.70, 149.90 08/07/2014 03:35:33 23.70, 145.41 473.10 217
3 08/19/2014 15:40:36 18.51, 156.45 08/19/2014 15:39:24 19.53, 151.53 529.66 72




NCC Satellite Simultaneous Nadir Overpasses (SNOs) Prediction Service
